Location: Le Vaud
(46.4779°N, 6.2346°E)
Time: 13:54:11
(UTC+00:00)

ALOS - Pass Details

Date: 18 February 2020
Orbit: 683 x 686 km, 97.8° (Epoch: 27 March)

Event Time Altitude Azimuth Distance (km) Brightness Sun altitude
Rises 04:12:50 0° 20° (NNE) 3,059 6.0 -25.1°
Reaches altitude 10° 04:15:15 10° 29° (NNE) 2,138 5.3 -24.6°
Maximum altitude 04:19:33 36° 96° (E) 1,084 3.8 -23.9°
Drops below altitude 10° 04:23:50 10° 163° (SSE) 2,122 4.9 -23.2°
Sets 04:26:13 0° 172° (S) 3,032 5.6 -22.8°
